Tracking 30922 objects as of 2-Jul-2025
HD Live streaming from Space Station
objects crossing your sky now

THORAD DELTA 1 DEB

Track THORAD DELTA 1 DEB now!
10-day predictions


NORAD ID: 14879
Int'l Code: 1974-089ES
Perigee: 1,447.0 km
Apogee: 1,791.0 km
Inclination: 101.3 °
Period: 118.5 minutes
Semi major axis: 7989 km
RCS: 0.0345 m2 (small)
Launch date: November 15, 1974
Source: United States (US)
Launch site: AIR FORCE WESTERN TEST RANGE (AFWTR)

Note: This is SATELLITE DEBRIS
Your satellite tracking list
Your tracking list is empty




NASA's NSSDC Master Catalog

Two Line Element Set (TLE):
1 14879U 74089ES  25182.77781185  .00000059  00000-0  92377-3 0  9994
2 14879 101.2538 139.2413 0215291   4.8558  56.2775 12.15577518514705
Source of the keplerian elements: AFSPC